Омутинский

Россия / Тюменская область     56°26′15″N   67°36′46″E
В апреле 2022 года жителям России запретили посещать сайт meteo.paraplan.net по решению Генеральной прокуратуры. Аудитория сайта уменьшилась в 10 раз. Владельцы сайта не видят смысла в поддержке погодного сервера в таких условиях. Сайт будет закрыт в октябре.
темп.,
°C
ветер,
м/с
пор.,
м/с
влажн.,
%
обл.,
%
осадки,
мм/ч
давл.,
гПа
погр.,
м
4 октября, вт
вт423:00+6ююз61452100 0.0 1030305
02:00+5ююз6145163 0.0 1030294
05:00+6юз61349100 0.0 1030328
08:00+6зюз61375100 0.8 1030336
11:00+8юз51270100 1.8 1031354
14:00+13зюз695598 0.0 1030537
17:00+13зюз4106243 0.0 1031241
20:00+9зюз4127749 0.0 1032208
5 октября, ср
ср523:00+8з41180100 0.0 1033182
02:00+8зюз4882100 0.0 1033125
05:00+7зюз410745 0.0 1034155
08:00+7зюз5125795 0.0 1034235
11:00+12зюз593525 0.0 1033437
14:00+14зюз683050 0.0 1032666
17:00+11юз5942100 0.0 1032314
20:00+8юз41051100 0.0 1032246
6 октября, чт
чт623:00+7юз3751100 0.0 1031154
02:00+7юз3751100 0.0 1030142
05:00+6юз3552100 0.0 103083
08:00+6юз3649100 0.0 1029133
11:00+11юз473699 0.0 1028363
14:00+13ююз4632100 0.0 1027531
17:00+11ю3745100 0.0 1025161
20:00+9ю4942100 0.0 1025191
7 октября, пт
пт723:00+9ю41141100 0.0 1022223
02:00+8ю4941100 0.0 1021164
05:00+8ююз3841100 0.0 1020158
08:00+8ююз3844100 0.0 1018167
11:00+11ююз5939100 0.0 1018417
14:00+12ююз51255100 0.0 10161090
17:00+10юз51166100 0.1 1015722
20:00+9юз51183100 0.4 1014701
8 октября, сб
сб823:00+8юз4891100 1.6 1012427
02:00+8юз3794100 0.4 1011325
05:00+8юз3693100 0.4 1009305
08:00+7з4796100 2.0 1008499
11:00+9з6862100 2.7 10091134
14:00+9з677197 0.2 10081141
17:00+7з4788100 0.4 1008944
20:00+7зсз5990100 0.5 10091187